Hourly Weather Banbridge

Today, 5 August, Wednesday

Time Temperature Precipitation Wind Pressure Humidity
00:00 +16°C° 0 mm 3 mps 743 mmHg 94%
01:00 +16°C° 0.1 mm 3 mps 743 mmHg 94%
02:00 +16°C° 0.1 mm 3 mps 744 mmHg 95%
03:00 +16°C° 0.1 mm 3 mps 744 mmHg 96%
04:00 +16°C° 0.1 mm 3 mps 743 mmHg 96%
05:00 +15°C° 0.1 mm 2 mps 743 mmHg 96%
06:00 +15°C° 0.1 mm 2 mps 743 mmHg 96%
07:00 +16°C° 0.2 mm 2 mps 743 mmHg 96%
08:00 +16°C° 0.2 mm 2 mps 744 mmHg 96%
09:00 +16°C° 0.2 mm 2 mps 744 mmHg 96%
10:00 +17°C° 1.2 mm 3 mps 744 mmHg 96%
11:00 +17°C° 1.2 mm 3 mps 744 mmHg 95%
12:00 +18°C° 1.2 mm 4 mps 743 mmHg 94%
13:00 +18°C° 1.1 mm 4 mps 744 mmHg 95%
14:00 +16°C° 1.1 mm 5 mps 744 mmHg 95%
15:00 +16°C° 1.1 mm 6 mps 745 mmHg 95%
16:00 +16°C° 0.1 mm 5 mps 746 mmHg 92%
17:00 +17°C° 0.1 mm 4 mps 746 mmHg 90%
18:00 +18°C° 0.1 mm 4 mps 747 mmHg 87%
19:00 +17°C° 0 mm 3 mps 747 mmHg 89%
20:00 +16°C° 0 mm 2 mps 748 mmHg 92%
21:00 +15°C° 0 mm 2 mps 749 mmHg 94%
22:00 +15°C° 0 mm 2 mps 750 mmHg 93%
23:00 +14°C° 0 mm 1 mps 750 mmHg 93%

Tomorrow, 6 August, Thursday

Time Temperature Precipitation Wind Pressure Humidity
00:00 +14°C° 0 mm 1 mps 750 mmHg 93%
01:00 +13°C° 0 mm 1 mps 751 mmHg 94%
02:00 +13°C° 0 mm 1 mps 751 mmHg 94%
03:00 +12°C° 0 mm 1 mps 751 mmHg 95%
04:00 +13°C° 0 mm 1 mps 751 mmHg 95%
05:00 +13°C° 0 mm 1 mps 751 mmHg 94%
06:00 +13°C° 0 mm 1 mps 751 mmHg 94%
07:00 +15°C° 0 mm 2 mps 751 mmHg 90%
08:00 +16°C° 0 mm 2 mps 752 mmHg 87%
09:00 +17°C° 0 mm 3 mps 752 mmHg 84%
10:00 +18°C° 0 mm 4 mps 752 mmHg 83%
11:00 +19°C° 0 mm 4 mps 752 mmHg 82%
12:00 +20°C° 0 mm 5 mps 752 mmHg 81%
13:00 +20°C° 0 mm 5 mps 752 mmHg 82%
14:00 +19°C° 0 mm 5 mps 752 mmHg 82%
15:00 +19°C° 0 mm 5 mps 752 mmHg 83%
16:00 +19°C° 0 mm 5 mps 752 mmHg 85%
17:00 +18°C° 0 mm 4 mps 752 mmHg 87%
18:00 +18°C° 0 mm 4 mps 751 mmHg 89%
19:00 +17°C° 0 mm 4 mps 752 mmHg 90%
20:00 +17°C° 0 mm 3 mps 752 mmHg 92%
21:00 +17°C° 0 mm 3 mps 752 mmHg 93%
22:00 +17°C° 0 mm 3 mps 752 mmHg 93%
23:00 +17°C° 0 mm 3 mps 752 mmHg 93%

Day after tomorrow, 7 August, Friday

Time Temperature Precipitation Wind Pressure Humidity
00:00 +16°C° 0 mm 3 mps 752 mmHg 93%
01:00 +16°C° 0 mm 3 mps 752 mmHg 94%
02:00 +14°C° 0 mm 3 mps 752 mmHg 94%
03:00 +15°C° 0 mm 2 mps 752 mmHg 95%
04:00 +15°C° 0 mm 2 mps 752 mmHg 96%
05:00 +15°C° 0 mm 2 mps 752 mmHg 96%
06:00 +15°C° 0 mm 2 mps 752 mmHg 96%
07:00 +16°C° 0 mm 3 mps 752 mmHg 93%
08:00 +17°C° 0 mm 4 mps 753 mmHg 91%
09:00 +19°C° 0 mm 4 mps 753 mmHg 88%
10:00 +19°C° 0.2 mm 5 mps 753 mmHg 88%
11:00 +19°C° 0.2 mm 5 mps 752 mmHg 88%
12:00 +20°C° 0.2 mm 5 mps 752 mmHg 88%
13:00 +20°C° 0.9 mm 5 mps 752 mmHg 90%
14:00 +20°C° 0.9 mm 5 mps 752 mmHg 91%
15:00 +19°C° 0.9 mm 5 mps 752 mmHg 92%
16:00 +19°C° 0.8 mm 4 mps 753 mmHg 92%
17:00 +18°C° 0.8 mm 4 mps 753 mmHg 92%
18:00 +17°C° 0.8 mm 4 mps 753 mmHg 92%
19:00 +15°C° 0.1 mm 4 mps 754 mmHg 92%
20:00 +13°C° 0.1 mm 4 mps 755 mmHg 93%
21:00 +12°C° 0.1 mm 4 mps 755 mmHg 93%
22:00 +11°C° 0 mm 3 mps 756 mmHg 94%
23:00 +10°C° 0 mm 3 mps 757 mmHg 94%

8 August, Saturday

Time Temperature Precipitation Wind Pressure Humidity
00:00 +9°C° 0 mm 2 mps 757 mmHg 95%
01:00 +9°C° 0 mm 2 mps 758 mmHg 95%
02:00 +9°C° 0 mm 2 mps 758 mmHg 95%
03:00 +8°C° 0 mm 2 mps 758 mmHg 95%
04:00 +9°C° 0 mm 2 mps 759 mmHg 95%
05:00 +9°C° 0 mm 2 mps 759 mmHg 95%
06:00 +10°C° 0 mm 1 mps 759 mmHg 96%
07:00 +12°C° 0 mm 1 mps 760 mmHg 91%
08:00 +13°C° 0 mm 1 mps 760 mmHg 86%
09:00 +15°C° 0 mm 1 mps 761 mmHg 81%
10:00 +16°C° 0 mm 1 mps 761 mmHg 76%
11:00 +18°C° 0 mm 1 mps 761 mmHg 70%
12:00 +19°C° 0 mm 1 mps 761 mmHg 64%
13:00 +19°C° 0 mm 1 mps 761 mmHg 64%
14:00 +20°C° 0 mm 1 mps 761 mmHg 63%
15:00 +20°C° 0 mm 1 mps 761 mmHg 62%
16:00 +19°C° 0 mm 1 mps 761 mmHg 67%
17:00 +19°C° 0 mm 1 mps 761 mmHg 72%
18:00 +18°C° 0 mm 1 mps 762 mmHg 77%
19:00 +16°C° 0 mm 1 mps 762 mmHg 81%
20:00 +14°C° 0 mm 1 mps 762 mmHg 85%
21:00 +12°C° 0 mm 1 mps 762 mmHg 90%
22:00 +12°C° 0 mm 1 mps 762 mmHg 88%
23:00 +11°C° 0 mm 1 mps 762 mmHg 87%

9 August, Sunday

Time Temperature Precipitation Wind Pressure Humidity
00:00 +11°C° 0 mm 1 mps 761 mmHg 86%
01:00 +10°C° 0 mm 1 mps 761 mmHg 86%
02:00 +10°C° 0 mm 1 mps 761 mmHg 87%
03:00 +10°C° 0 mm 1 mps 761 mmHg 87%
04:00 +10°C° 0 mm 1 mps 761 mmHg 87%
05:00 +10°C° 0 mm 1 mps 761 mmHg 88%
06:00 +11°C° 0 mm 1 mps 761 mmHg 88%
07:00 +12°C° 0 mm 2 mps 761 mmHg 84%
08:00 +14°C° 0 mm 2 mps 761 mmHg 80%
09:00 +16°C° 0 mm 2 mps 760 mmHg 75%
10:00 +17°C° 0 mm 2 mps 760 mmHg 73%
11:00 +18°C° 0 mm 2 mps 760 mmHg 71%
12:00 +19°C° 0 mm 3 mps 760 mmHg 68%
13:00 +19°C° 0 mm 3 mps 760 mmHg 68%
14:00 +19°C° 0 mm 3 mps 759 mmHg 68%
15:00 +19°C° 0 mm 3 mps 759 mmHg 68%
16:00 +18°C° 0 mm 3 mps 759 mmHg 71%
17:00 +18°C° 0 mm 2 mps 759 mmHg 74%
18:00 +17°C° 0 mm 2 mps 759 mmHg 77%
19:00 +16°C° 0 mm 2 mps 758 mmHg 81%
20:00 +14°C° 0 mm 2 mps 758 mmHg 86%
21:00 +12°C° 0 mm 1 mps 758 mmHg 90%
22:00 +12°C° 0 mm 1 mps 758 mmHg 90%
23:00 +13°C° 0 mm 2 mps 758 mmHg 90%

10 August, Monday

Time Temperature Precipitation Wind Pressure Humidity
00:00 +13°C° 0 mm 2 mps 758 mmHg 90%
01:00 +13°C° 0 mm 2 mps 758 mmHg 90%
02:00 +13°C° 0 mm 2 mps 757 mmHg 90%
03:00 +14°C° 0 mm 2 mps 757 mmHg 90%
04:00 +13°C° 0.3 mm 2 mps 757 mmHg 92%
05:00 +13°C° 0.3 mm 2 mps 757 mmHg 94%
06:00 +12°C° 0.3 mm 3 mps 757 mmHg 96%
07:00 +12°C° 0.3 mm 3 mps 756 mmHg 96%
08:00 +13°C° 0.3 mm 3 mps 756 mmHg 96%
09:00 +13°C° 0.3 mm 3 mps 756 mmHg 96%
10:00 +13°C° 0.3 mm 3 mps 756 mmHg 95%
11:00 +13°C° 0.3 mm 3 mps 756 mmHg 94%
12:00 +13°C° 0.3 mm 3 mps 756 mmHg 94%
13:00 +13°C° 0.2 mm 3 mps 756 mmHg 93%
14:00 +14°C° 0.2 mm 2 mps 756 mmHg 93%
15:00 +14°C° 0.2 mm 2 mps 756 mmHg 93%
16:00 +14°C° 0.1 mm 2 mps 756 mmHg 94%
17:00 +14°C° 0.1 mm 2 mps 756 mmHg 94%
18:00 +14°C° 0.1 mm 2 mps 755 mmHg 94%
19:00 +14°C° 0.1 mm 1 mps 755 mmHg 95%
20:00 +14°C° 0.1 mm 1 mps 755 mmHg 96%
21:00 +13°C° 0.1 mm 1 mps 755 mmHg 97%
22:00 +13°C° 0 mm 1 mps 755 mmHg 97%
23:00 +12°C° 0 mm 0 mps 755 mmHg 97%
Show more